Starlink 11427

operational
NORAD ID: 62063 Int'l Des: 2024-217 Owner: SPXS Country: US Constellation: starlink
LEOCIRCULAR

About Starlink 11427

Description loading...

Live Position

Loading 3D Globe...

Upcoming Passes

Altitude History

Altitude vs Time

uPlot chart will show altitude changes over time

Two-Line Element Set

1 62063U 24217G 25303.56667750 .00081122 00000-0 66669-3 0 9998
2 62063 53.1572 352.9072 0001330 129.9987 230.1148 15.69754176 54731
Epoch: Oct 30, 2025 • Age: 24 hours

Current Status

Altitude 374.4 km
Velocity 7.68 km/s
Sub-Earth Point -44.61°S, 27.94°W
Launch Date Nov 24, 2024
Age 0.9 years
Type internet

Technical Details

Classification Payload
Mass 960.00 kg
Dry Mass 910.00 kg
Total Mass 960.00 kg
Length 0.30 m
Diameter 4.10 m
Span 29.00 m
Shape Box + pan
Manufacturer SPXS
Bus Type Starlink V2MD
Phase Status In Orbit
Owner/State SPXS/US

Large Constellations

Loading constellations...